Location: Dresden
(51.0500°N, 13.7500°E)
Time: 11:38:48
(UTC+00:00)

ISS - Visible Passes

Search period start: 14 May 2021 00:00
Search period end: 24 May 2021 00:00
Orbit: 417 x 422 km, 51.6° (Epoch: 14 May)

Date Brightness Start Highest point End Pass type
(mag) Time Alt. Az. Time Alt. Az. Time Alt. Az.
14 May -3.9 00:52:30 10° W 00:55:53 80° SSW 00:59:16 10° ESE visible
14 May -2.7 02:29:33 10° W 02:32:24 25° SSW 02:35:15 10° SSE visible
14 May -3.2 20:51:51 10° SW 20:54:55 34° SSE 20:58:01 10° E visible
14 May -3.9 22:28:10 10° W 22:31:33 89° N 22:34:56 10° E visible
15 May -3.8 00:05:03 10° W 00:08:26 88° N 00:11:50 10° E visible
15 May -3.2 01:41:57 10° W 01:45:05 35° SSW 01:48:12 10° SE visible
15 May -2.7 20:04:49 10° SSW 20:07:36 24° SE 20:10:24 10° E visible
15 May -3.9 21:40:44 10° WSW 21:44:06 78° SSE 21:47:29 10° E visible
15 May -3.7 23:17:35 10° W 23:20:58 80° N 23:24:21 10° E visible
16 May -3.6 00:54:26 10° W 00:57:44 48° SSW 01:01:00 10° SE visible
16 May -1.8 02:32:28 10° WSW 02:33:55 12° SW 02:35:22 10° SSW visible
16 May -3.8 20:53:20 10° WSW 20:56:40 62° SSE 21:00:01 10° E visible
16 May -3.7 22:30:07 10° W 22:33:30 78° N 22:36:53 10° E visible
17 May -3.9 00:06:57 10° W 00:10:19 64° SSW 00:13:39 10° ESE visible
17 May -2.3 01:45:02 13° WSW 01:46:41 18° SW 01:49:03 10° S visible
17 May -3.5 20:06:01 10° SW 20:09:16 47° SSE 20:12:32 10° E visible
17 May -3.7 21:42:38 10° W 21:46:01 81° N 21:49:24 10° E visible
17 May -3.9 23:19:30 10° W 23:22:53 79° SSW 23:22:53 79° SSW visible
18 May -3.8 20:55:09 10° W 20:58:32 89° NNW 21:01:55 10° E visible
18 May -3.8 22:32:02 10° W 22:35:25 88° N 22:36:27 42° E visible
19 May -1.3 00:08:56 10° W 00:09:22 13° W 00:09:22 13° W visible
19 May -3.8 20:07:42 10° WSW 20:11:04 78° SSE 20:14:27 10° E visible
19 May -3.7 21:44:33 10° W 21:47:55 81° N 21:50:16 19° E visible
19 May -2.4 23:21:24 10° W 23:23:11 27° W 23:23:11 27° W visible
20 May -3.7 20:57:03 10° W 21:00:26 78° N 21:03:49 10° E visible
20 May -3.8 22:33:55 10° W 22:37:05 62° SW 22:37:05 62° SW visible
21 May -3.7 20:09:34 10° W 20:12:57 81° N 20:16:19 10° E visible
21 May -3.9 21:46:25 10° W 21:49:48 79° SSW 21:51:02 36° ESE visible
21 May -1.3 23:23:29 10° W 23:23:58 13° W 23:23:58 13° W visible
22 May -3.8 20:58:57 10° W 21:02:20 88° NNE 21:05:01 15° E visible
22 May -2.5 22:35:51 10° W 22:37:57 28° WSW 22:37:57 28° WSW visible
23 May -3.7 20:11:27 10° W 20:14:49 81° N 20:18:13 10° E visible
23 May -3.5 21:48:18 10° W 21:51:35 48° SSW 21:51:57 45° S visible
